Location: Chuathbaluk
(61.5726°N, 159.2454°W)
Time: 04:05:39
(UTC+00:00)

Transit 2A - Pass Details

Date: 30 November 2020
Orbit: 599 x 960 km, 66.7° (Epoch: 26 January)

Event Time Altitude Azimuth Distance (km) Brightness Sun altitude
Rises 11:48:28 0° 309° (NW) 3,407 - -47.7°
Reaches altitude 10° 11:51:08 10° 303° (WNW) 2,410 - -47.6°
Maximum altitude 11:56:19 44° 233° (SW) 1,039 - -47.2°
Drops below altitude 10° 12:01:00 10° 162° (SSE) 2,169 - -46.9°
Sets 12:03:18 0° 156° (SSE) 3,032 - -46.8°
